Location: �terpigny
(49.8910°N, 2.9249°E)
Time: 19:54:01
(UTC+00:00)

NANOSAT C BR1 - Pass Details

Date: 09 July 2022
Orbit: 584 x 599 km, 98.0° (Epoch: 17 August)

Event Time Altitude Azimuth Distance (km) Brightness Sun altitude
Rises 02:19:29 0° 12° (NNE) 2,858 ? -10.8°
Reaches altitude 10° 02:21:40 10° 10° (N) 1,953 ? -10.6°
Maximum altitude 02:25:53 70° 287° (WNW) 645 ? -10.2°
Enters shadow 02:29:37 13° 205° (SSW) 1,751 ? -9.9°
